SCP
0 0 0 0 0 0 0 0 0 0 0 0 0 0 0 0 0 1 0 0 0 0 0 0 0 0 0 0 0 0 0 0 0 0 0 0 0 0 0 0 0 0 0
0 0 0 0 0 0 0 0 0 0 0 0 0 0 0 0 1 1 0 0 0 0 0 0 0 0 1 0 0 0 0 0 0 0 0 0 0 0 0 0 0 0 0
0 0 0 0 0 0 0 0 0 0 0 0 0 0 0 0 0 0 0 0 0 1 1 1 1 1 1 0 0 0 0 0 0 0 0 0 0 0 0 0 0 1 0
0 0 0 0 0 0 0 0 0 0 0 0 0 0 0 0 0 0 0 0 1 1 1 1 1 1 1 1 1 1 0 0 0 0 0 0 0 0 0 0 0 0 0
0 0 0 0 0 0 0 0 0 0 0 0 0 0 0 0 0 0 0 0 1 1 1 0 0 0 0 0 0 0 0 0 0 0 0 0 0 0 0 0 0 0 0
0 0 0 0 0 0 0 0 0 0 0 0 0 0 0 0 0 0 0 0 0 0 0 0 0 0 0 0 0 0 0 0 0 0 0 0 0 0 0 0 0 0 0
0 0 0 0 0 0 0 0 0 0 0 0 0 0 0 0 0 0 0 0 0 0 0 0 0 0 0 0 0 0 0 0 0 0 0 0 0 0 0 0 0 0 0
0 0 0 0 0 0 0 0 0 0 0 0 0 0 0 0 0 0 0 0 0 0 0 0 0 0 0 0 0 0 0 0 0 0 0 0 0 0 0 0 0 0 0
0 0 0 0 0 0 0 0 0 0 0 0 0 0 0 0 0 0 0 0 0 0 0 0 0 0 0 0 0 0 0 0 0 0 0 0 0 0 0 0 0 0 0
0 0 0 0 0 0 0 0 0 0 0 0 0 0 0 0 0 0 0 0 0 0 0 0 0 0 0 0 0 0 0 0 0 0 0 0 0 0 0 0 0 0 0
0 0 0 0 0 0 0 0 0 0 0 0 0 0 0 0 0 0 0 0 0 0 0 0 0 0 0 0 0 0 0 0 0 0 0 0 0 0 0 0 0 0 0
0 0 0 0 0 0 0 0 0 0 0 0 0 0 0 0 0 0 0 0 0 0 0 0 0 0 0 0 0 0 0 0 0 0 0 0 0 0 0 0 0 0 0
0 0 0 0 0 0 0 0 0 0 0 0 0 0 0 0 0 0 0 0 0 0 0 0 0 0 0 0 0 0 0 0 0 0 0 0 0 0 0 0 0 0 0
-0 0 0 0 0 0 0 0 0 0 0 0 0 0 0 0 0 0 0 0 0 0 0 0 0 0 0 0 0 0 0 0 0 0 0 0 0 0 0 0 0 0 0
0 0 0 0 0 0 0 0 0 0 0 0 0 0 0 0 0 0 0 0 0 0 0 0 0 0 0 0 -0 0 0 0 0 0 0 0 0 0 0 0 0 0 0
0 0 0 0 0 0 0 0 0 0 0 0 0 0 0 0 0 0 0 0 0 0 0 0 0 0 0 0 0 0 -0 0 0 0 0 0 0 0 0 0 0 0 0
0 0 0 0 0 0 0 0 0 0 0 0 0 0 0 0 0 0 0 -0 -0 0 0 0 0 0 0 0 0 0 0 -0 0 0 0 0 0 0 -0 -0 0 -0 -0
0 0 0 0 0 0 0 0 0 0 0 0 0 0 0 -0 -0 -0 -0 0 0 0 0 0 0 0 0 0 0 0 0 0 0 0 -0 0 0 0 0 0 0 0 0
0 0 0 0 0 0 0 0 0 0 0 0 0 -0 -0 -0 0 0 0 0 0 0 0 0 0 0 0 0 0 0 0 -0 0 0 0 0 0 0 0 0 0 0 0
0 0 0 0 0 0 0 0 0 0 0 0 0 0 0 0 0 0 0 0 0 0 0 -0 0 0 0 0 0 0 0 0 0 0 0 0 0 0 0 0 0 0 0
0 0 0 0 0 0 0 0 0 0 0 0 -0 0 0 0 0 0 0 0 0 0 -0 -0 0 0 0 0 0 0 0 0 0 0 0 0 0 0 0 0 0 0 0
0 0 0 0 0 0 0 0 0 0 0 0 -0 0 0 0 0 0 0 0 0 0 0 0 0 0 0 0 0 0 0 0 0 0 0 0 0 0 0 0 -0 -0 0
0 0 0 0 0 0 0 0 0 0 0 0 0 0 0 0 0 0 0 0 0 0 0 0 0 0 0 0 0 0 0 0 0 0 -0 -0 0 0 -0 -0 -0 -0 0
0 0 0 0 0 0 0 0 0 0 0 0 0 0 0 0 -0 0 0 0 0 -0 0 0 0 0 0 0 0 0 0 0 0 0 0 0 0 -0 0 0 0 0 0
0 0 0 0 0 0 0 0 0 0 0 0 0 0 0 0 0 0 0 0 0 0 0 0 0 0 0 0 0 0 0 0 0 0 0 0 0 0 0 0 0 0 0
0 0 0 0 0 0 0 0 0 0 0 0 0 0 0 0 0 0 0 0 0 0 0 0 0 0 0 0 0 0 0 0 0 0 0 0 0 0 0 0 0 0 0
Wind_Speed_500mb
8 16 25 31 37 41 45 48 51 54 56 52 47 48 50 52 52 57 62 59 54 56 58 55 53 55 50 49 48 49 51 52 62 66 58 56 58 56 53 52 44 41 34
16 26 34 37 39 45 47 48 49 53 56 55 54 55 57 58 58 59 60 62 64 67 66 64 65 63 62 61 56 56 54 55 59 64 64 62 57 55 53 51 47 37 33
9 12 16 21 28 33 37 40 45 45 44 49 49 53 57 60 63 65 67 70 70 75 79 80 80 75 73 72 70 69 64 60 58 61 64 61 59 52 54 49 46 37 33
16 18 21 25 33 37 42 46 49 51 53 57 60 58 57 60 62 64 67 72 78 82 85 86 86 83 82 77 74 72 67 64 60 58 60 62 60 53 48 46 43 37 31
25 28 31 36 42 44 48 54 59 61 64 62 61 63 65 67 70 70 68 72 80 85 88 86 86 87 89 87 83 79 71 67 63 62 59 56 59 52 46 41 41 34 36
33 38 40 43 46 48 52 57 62 64 64 63 65 67 70 72 75 79 84 83 86 87 87 84 85 88 87 93 100 99 90 78 72 68 64 58 63 48 48 52 47 43 42
42 46 48 50 54 56 57 58 60 62 63 65 66 66 69 69 71 76 83 88 80 81 82 85 89 89 88 89 93 92 95 95 89 85 66 64 66 71 56 51 47 45 48
51 54 56 57 60 60 60 61 62 62 63 63 64 63 65 66 65 72 77 78 66 67 71 73 74 81 89 94 83 86 83 75 78 83 78 62 53 55 71 58 44 45 43
57 58 58 58 61 61 62 61 61 61 62 60 58 59 61 63 69 74 67 63 65 64 59 64 67 69 76 85 86 81 75 73 72 78 83 81 88 94 74 58 59 51 45
59 59 57 57 58 60 59 58 55 56 59 59 63 65 60 67 73 62 53 54 51 51 56 55 63 64 62 66 74 75 77 79 79 83 86 93 78 69 66 67 62 64 60
58 58 56 55 56 56 57 55 62 75 77 75 74 75 72 67 62 55 52 58 56 50 51 52 54 61 63 66 70 79 87 87 86 90 83 70 61 54 62 62 62 66 64
57 57 56 55 62 73 73 68 62 60 61 63 64 63 57 49 41 39 38 44 46 50 52 54 55 55 48 59 63 69 74 73 72 73 71 73 71 61 48 49 54 58 55
56 60 72 70 63 55 53 52 52 53 55 57 56 54 54 44 34 38 49 39 41 48 49 47 48 54 57 54 61 69 75 88 98 103 105 93 77 66 55 51 49 40 36
76 69 63 61 55 49 47 49 50 52 55 55 53 53 49 35 33 29 33 26 30 26 36 46 47 43 43 52 54 52 53 56 74 86 96 91 79 63 60 59 59 53 40
60 60 57 54 49 48 44 47 50 52 49 50 54 51 45 46 38 40 33 25 13 23 34 30 33 34 34 38 25 23 26 10 46 69 62 58 68 71 66 62 49 45 39
58 58 54 49 44 42 48 53 51 50 43 39 42 47 53 57 52 41 27 14 16 21 30 29 27 22 23 15 10 11 23 35 60 78 84 80 74 67 59 51 38 38 35
52 50 45 38 36 44 51 51 59 53 42 33 29 28 35 36 32 26 14 10 17 11 18 24 21 18 2 17 22 22 35 47 53 63 64 61 56 53 53 46 39 34 32
41 35 34 33 35 44 48 47 45 44 40 31 21 16 16 13 14 15 13 1 15 8 13 12 15 0 16 27 25 14 27 37 39 46 47 46 44 44 40 38 32 24 20
35 30 29 29 29 42 42 37 34 29 24 23 14 13 7 11 7 16 12 4 13 15 10 18 13 2 16 31 20 25 29 38 39 39 39 36 35 33 31 28 24 20 17
28 23 21 24 28 36 30 26 22 19 22 25 19 13 12 11 8 6 3 9 14 17 5 11 3 7 20 22 26 26 29 34 34 33 32 30 28 25 26 26 21 19 15
28 25 24 25 24 28 25 18 20 24 20 21 14 11 11 7 2 4 7 9 13 12 10 7 6 2 24 23 25 23 22 27 28 28 27 24 20 20 20 19 17 12 9
24 23 24 24 26 25 26 20 15 17 21 27 17 11 5 6 5 7 9 12 15 9 9 15 7 5 17 27 20 24 23 23 24 24 21 17 15 16 14 12 11 9 9
21 20 21 22 22 22 19 20 18 16 20 24 22 23 18 13 8 1 6 6 6 8 31 15 14 12 21 19 24 16 22 19 19 19 17 14 13 10 10 11 10 8 7
22 19 20 20 19 20 16 21 17 20 23 24 23 21 22 21 14 7 1 10 7 18 27 16 12 14 16 14 18 11 18 19 18 17 14 12 8 9 4 3 4 8 9
28 23 21 23 25 24 22 15 15 19 18 20 21 22 29 27 23 17 7 11 23 30 12 16 17 21 18 14 17 19 22 27 23 23 15 13 9 7 3 3 8 10 12
34 31 26 24 26 29 27 22 18 16 18 21 22 20 19 27 22 26 23 24 19 14 16 17 21 21 20 20 22 22 25 24 25 19 10 4 6 10 9 9 9 12 16
Wind_Direction_500mb
232 236 238 240 242 248 252 256 256 254 255 257 254 252 252 251 250 252 254 252 252 255 262 258 259 268 268 272 277 280 282 281 282 285 286 288 290 286 278 274 277 276 276
269 261 258 258 262 264 266 265 263 262 260 259 258 257 255 254 255 254 254 253 252 252 254 256 256 261 261 268 271 273 275 278 282 284 284 283 284 285 279 279 275 264 261
327 309 300 287 281 278 275 273 271 270 267 266 263 261 260 259 259 259 259 259 258 257 254 252 252 252 253 257 260 265 271 278 280 281 283 281 281 278 282 278 276 262 260
315 304 298 293 285 283 281 279 277 275 274 273 272 269 265 264 262 261 260 260 260 261 260 255 254 253 251 251 254 259 265 272 277 278 279 278 280 281 278 279 274 270 267
308 302 297 294 291 289 285 283 282 280 278 275 272 270 268 266 266 265 263 263 263 263 262 262 261 256 251 251 252 256 260 262 268 277 277 276 272 274 273 276 274 273 265
302 298 295 293 291 289 287 286 285 282 280 277 274 272 270 268 267 263 260 260 261 261 262 262 261 260 257 255 253 251 254 256 258 265 270 275 278 283 277 270 278 282 276
300 298 295 292 290 289 287 285 282 281 280 277 275 274 272 271 269 266 263 261 264 263 262 262 260 259 259 257 255 254 255 251 250 258 261 266 271 269 273 269 270 270 275
298 295 293 291 288 286 284 283 281 281 279 278 276 274 273 272 270 265 262 264 266 262 262 262 261 259 255 251 253 251 249 248 252 256 261 261 264 262 259 261 264 271 276
296 294 292 289 286 286 284 283 282 280 278 275 275 275 273 270 267 268 270 265 267 271 270 262 260 262 256 254 252 247 246 247 250 251 258 261 267 270 259 255 256 264 275
298 294 292 291 289 288 285 283 282 279 278 276 273 271 270 269 276 276 271 268 272 270 265 265 260 258 253 249 242 244 246 249 255 260 264 272 264 252 244 242 244 252 258
297 296 295 294 291 288 286 282 281 283 285 283 280 280 280 280 280 278 270 268 266 265 265 265 258 254 254 256 256 255 257 264 262 262 263 255 244 244 242 240 237 239 244
298 295 294 292 289 291 291 290 289 288 289 289 288 286 285 286 286 294 289 277 265 261 263 265 265 256 257 257 256 256 259 260 255 250 249 249 246 244 226 225 235 226 241
297 296 298 301 301 302 301 300 299 297 293 292 288 282 285 285 270 276 277 263 269 264 262 264 258 254 256 259 263 265 267 263 258 252 250 250 240 232 232 232 216 195 178
298 302 305 306 308 309 306 308 305 303 300 294 282 279 281 272 272 270 258 278 269 268 270 267 262 254 257 262 272 277 270 269 251 244 239 237 227 223 206 211 174 184 190
305 306 308 312 312 312 310 313 309 305 298 287 278 273 269 268 271 275 253 285 285 271 275 260 254 252 256 273 243 278 323 17 234 226 213 195 184 183 178 163 171 187 178
305 306 311 313 318 321 322 322 319 317 310 294 281 269 267 262 266 271 234 252 292 286 254 257 260 253 267 237 225 122 47 86 112 135 142 146 147 150 162 162 173 180 185
310 314 317 319 324 331 333 326 326 326 319 310 298 283 267 268 267 223 239 244 326 262 252 258 260 231 235 159 151 140 119 110 110 114 122 134 144 154 156 160 168 179 191
321 322 321 320 326 336 334 328 323 318 322 325 320 302 283 258 203 197 186 34 338 294 289 241 220 263 172 171 175 165 130 124 124 126 130 133 138 145 152 158 164 169 174
330 331 329 331 337 343 335 327 330 333 335 337 351 4 291 174 160 169 172 294 304 318 290 234 225 52 154 177 176 149 128 124 123 125 125 129 133 138 145 154 156 156 153
345 349 341 344 351 346 349 353 9 9 23 20 18 35 97 91 148 192 244 266 297 302 301 220 232 82 142 157 139 135 130 123 117 127 133 134 134 138 147 155 157 156 162
356 359 1 358 356 356 358 359 20 16 12 28 35 30 98 45 258 224 241 257 312 270 206 242 204 14 154 144 152 140 140 140 123 127 131 135 136 137 145 153 154 145 144
11 8 9 16 19 19 16 18 7 2 17 22 42 34 67 3 309 275 258 272 304 213 249 198 197 44 133 138 126 143 143 126 125 126 127 130 124 115 119 132 148 170 171
24 23 25 31 31 29 41 23 14 19 30 44 55 55 49 25 20 217 224 270 221 244 194 183 164 125 142 141 148 153 130 130 129 122 120 118 112 128 155 167 173 183 207
34 32 32 33 34 37 44 31 35 35 36 40 32 21 16 32 46 48 218 191 244 161 170 190 177 155 149 136 138 116 131 134 121 116 117 125 136 143 154 172 204 205 213
41 40 41 38 38 44 44 44 37 34 42 49 31 22 21 39 42 48 60 122 110 109 171 193 175 169 162 138 144 169 163 143 138 127 122 114 96 65 25 293 261 246 233
50 49 51 49 44 42 45 52 49 34 35 37 34 40 43 52 51 52 80 75 69 98 141 163 171 163 153 151 172 171 167 161 149 144 122 81 33 11 350 316 284 258 238
Wind_Speed_850mb
8 16 25 31 37 41 45 48 51 54 56 52 47 48 50 52 52 57 62 59 54 56 58 55 53 55 50 49 48 49 51 52 62 66 58 56 58 56 53 52 44 41 34
16 26 34 37 39 45 47 48 49 53 56 55 54 55 57 58 58 59 60 62 64 67 66 64 65 63 62 61 56 56 54 55 59 64 64 62 57 55 53 51 47 37 33
9 12 16 21 28 33 37 40 45 45 44 49 49 53 57 60 63 65 67 70 70 75 79 80 80 75 73 72 70 69 64 60 58 61 64 61 59 52 54 49 46 37 33
16 18 21 25 33 37 42 46 49 51 53 57 60 58 57 60 62 64 67 72 78 82 85 86 86 83 82 77 74 72 67 64 60 58 60 62 60 53 48 46 43 37 31
25 28 31 36 42 44 48 54 59 61 64 62 61 63 65 67 70 70 68 72 80 85 88 86 86 87 89 87 83 79 71 67 63 62 59 56 59 52 46 41 41 34 36
33 38 40 43 46 48 52 57 62 64 64 63 65 67 70 72 75 79 84 83 86 87 87 84 85 88 87 93 100 99 90 78 72 68 64 58 63 48 48 52 47 43 42
42 46 48 50 54 56 57 58 60 62 63 65 66 66 69 69 71 76 83 88 80 81 82 85 89 89 88 89 93 92 95 95 89 85 66 64 66 71 56 51 47 45 48
51 54 56 57 60 60 60 61 62 62 63 63 64 63 65 66 65 72 77 78 66 67 71 73 74 81 89 94 83 86 83 75 78 83 78 62 53 55 71 58 44 45 43
57 58 58 58 61 61 62 61 61 61 62 60 58 59 61 63 69 74 67 63 65 64 59 64 67 69 76 85 86 81 75 73 72 78 83 81 88 94 74 58 59 51 45
59 59 57 57 58 60 59 58 55 56 59 59 63 65 60 67 73 62 53 54 51 51 56 55 63 64 62 66 74 75 77 79 79 83 86 93 78 69 66 67 62 64 60
58 58 56 55 56 56 57 55 62 75 77 75 74 75 72 67 62 55 52 58 56 50 51 52 54 61 63 66 70 79 87 87 86 90 83 70 61 54 62 62 62 66 64
57 57 56 55 62 73 73 68 62 60 61 63 64 63 57 49 41 39 38 44 46 50 52 54 55 55 48 59 63 69 74 73 72 73 71 73 71 61 48 49 54 58 55
56 60 72 70 63 55 53 52 52 53 55 57 56 54 54 44 34 38 49 39 41 48 49 47 48 54 57 54 61 69 75 88 98 103 105 93 77 66 55 51 49 40 36
76 69 63 61 55 49 47 49 50 52 55 55 53 53 49 35 33 29 33 26 30 26 36 46 47 43 43 52 54 52 53 56 74 86 96 91 79 63 60 59 59 53 40
60 60 57 54 49 48 44 47 50 52 49 50 54 51 45 46 38 40 33 25 13 23 34 30 33 34 34 38 25 23 26 10 46 69 62 58 68 71 66 62 49 45 39
58 58 54 49 44 42 48 53 51 50 43 39 42 47 53 57 52 41 27 14 16 21 30 29 27 22 23 15 10 11 23 35 60 78 84 80 74 67 59 51 38 38 35
52 50 45 38 36 44 51 51 59 53 42 33 29 28 35 36 32 26 14 10 17 11 18 24 21 18 2 17 22 22 35 47 53 63 64 61 56 53 53 46 39 34 32
41 35 34 33 35 44 48 47 45 44 40 31 21 16 16 13 14 15 13 1 15 8 13 12 15 0 16 27 25 14 27 37 39 46 47 46 44 44 40 38 32 24 20
35 30 29 29 29 42 42 37 34 29 24 23 14 13 7 11 7 16 12 4 13 15 10 18 13 2 16 31 20 25 29 38 39 39 39 36 35 33 31 28 24 20 17
28 23 21 24 28 36 30 26 22 19 22 25 19 13 12 11 8 6 3 9 14 17 5 11 3 7 20 22 26 26 29 34 34 33 32 30 28 25 26 26 21 19 15
28 25 24 25 24 28 25 18 20 24 20 21 14 11 11 7 2 4 7 9 13 12 10 7 6 2 24 23 25 23 22 27 28 28 27 24 20 20 20 19 17 12 9
24 23 24 24 26 25 26 20 15 17 21 27 17 11 5 6 5 7 9 12 15 9 9 15 7 5 17 27 20 24 23 23 24 24 21 17 15 16 14 12 11 9 9
21 20 21 22 22 22 19 20 18 16 20 24 22 23 18 13 8 1 6 6 6 8 31 15 14 12 21 19 24 16 22 19 19 19 17 14 13 10 10 11 10 8 7
22 19 20 20 19 20 16 21 17 20 23 24 23 21 22 21 14 7 1 10 7 18 27 16 12 14 16 14 18 11 18 19 18 17 14 12 8 9 4 3 4 8 9
28 23 21 23 25 24 22 15 15 19 18 20 21 22 29 27 23 17 7 11 23 30 12 16 17 21 18 14 17 19 22 27 23 23 15 13 9 7 3 3 8 10 12
34 31 26 24 26 29 27 22 18 16 18 21 22 20 19 27 22 26 23 24 19 14 16 17 21 21 20 20 22 22 25 24 25 19 10 4 6 10 9 9 9 12 16
Wind_Direction_850mb
232 236 238 240 242 248 252 256 256 254 255 257 254 252 252 251 250 252 254 252 252 255 262 258 259 268 268 272 277 280 282 281 282 285 286 288 290 286 278 274 277 276 276
269 261 258 258 262 264 266 265 263 262 260 259 258 257 255 254 255 254 254 253 252 252 254 256 256 261 261 268 271 273 275 278 282 284 284 283 284 285 279 279 275 264 261
327 309 300 287 281 278 275 273 271 270 267 266 263 261 260 259 259 259 259 259 258 257 254 252 252 252 253 257 260 265 271 278 280 281 283 281 281 278 282 278 276 262 260
315 304 298 293 285 283 281 279 277 275 274 273 272 269 265 264 262 261 260 260 260 261 260 255 254 253 251 251 254 259 265 272 277 278 279 278 280 281 278 279 274 270 267
308 302 297 294 291 289 285 283 282 280 278 275 272 270 268 266 266 265 263 263 263 263 262 262 261 256 251 251 252 256 260 262 268 277 277 276 272 274 273 276 274 273 265
302 298 295 293 291 289 287 286 285 282 280 277 274 272 270 268 267 263 260 260 261 261 262 262 261 260 257 255 253 251 254 256 258 265 270 275 278 283 277 270 278 282 276
300 298 295 292 290 289 287 285 282 281 280 277 275 274 272 271 269 266 263 261 264 263 262 262 260 259 259 257 255 254 255 251 250 258 261 266 271 269 273 269 270 270 275
298 295 293 291 288 286 284 283 281 281 279 278 276 274 273 272 270 265 262 264 266 262 262 262 261 259 255 251 253 251 249 248 252 256 261 261 264 262 259 261 264 271 276
296 294 292 289 286 286 284 283 282 280 278 275 275 275 273 270 267 268 270 265 267 271 270 262 260 262 256 254 252 247 246 247 250 251 258 261 267 270 259 255 256 264 275
298 294 292 291 289 288 285 283 282 279 278 276 273 271 270 269 276 276 271 268 272 270 265 265 260 258 253 249 242 244 246 249 255 260 264 272 264 252 244 242 244 252 258
297 296 295 294 291 288 286 282 281 283 285 283 280 280 280 280 280 278 270 268 266 265 265 265 258 254 254 256 256 255 257 264 262 262 263 255 244 244 242 240 237 239 244
298 295 294 292 289 291 291 290 289 288 289 289 288 286 285 286 286 294 289 277 265 261 263 265 265 256 257 257 256 256 259 260 255 250 249 249 246 244 226 225 235 226 241
297 296 298 301 301 302 301 300 299 297 293 292 288 282 285 285 270 276 277 263 269 264 262 264 258 254 256 259 263 265 267 263 258 252 250 250 240 232 232 232 216 195 178
298 302 305 306 308 309 306 308 305 303 300 294 282 279 281 272 272 270 258 278 269 268 270 267 262 254 257 262 272 277 270 269 251 244 239 237 227 223 206 211 174 184 190
305 306 308 312 312 312 310 313 309 305 298 287 278 273 269 268 271 275 253 285 285 271 275 260 254 252 256 273 243 278 323 17 234 226 213 195 184 183 178 163 171 187 178
305 306 311 313 318 321 322 322 319 317 310 294 281 269 267 262 266 271 234 252 292 286 254 257 260 253 267 237 225 122 47 86 112 135 142 146 147 150 162 162 173 180 185
310 314 317 319 324 331 333 326 326 326 319 310 298 283 267 268 267 223 239 244 326 262 252 258 260 231 235 159 151 140 119 110 110 114 122 134 144 154 156 160 168 179 191
321 322 321 320 326 336 334 328 323 318 322 325 320 302 283 258 203 197 186 34 338 294 289 241 220 263 172 171 175 165 130 124 124 126 130 133 138 145 152 158 164 169 174
330 331 329 331 337 343 335 327 330 333 335 337 351 4 291 174 160 169 172 294 304 318 290 234 225 52 154 177 176 149 128 124 123 125 125 129 133 138 145 154 156 156 153
345 349 341 344 351 346 349 353 9 9 23 20 18 35 97 91 148 192 244 266 297 302 301 220 232 82 142 157 139 135 130 123 117 127 133 134 134 138 147 155 157 156 162
356 359 1 358 356 356 358 359 20 16 12 28 35 30 98 45 258 224 241 257 312 270 206 242 204 14 154 144 152 140 140 140 123 127 131 135 136 137 145 153 154 145 144
11 8 9 16 19 19 16 18 7 2 17 22 42 34 67 3 309 275 258 272 304 213 249 198 197 44 133 138 126 143 143 126 125 126 127 130 124 115 119 132 148 170 171
24 23 25 31 31 29 41 23 14 19 30 44 55 55 49 25 20 217 224 270 221 244 194 183 164 125 142 141 148 153 130 130 129 122 120 118 112 128 155 167 173 183 207
34 32 32 33 34 37 44 31 35 35 36 40 32 21 16 32 46 48 218 191 244 161 170 190 177 155 149 136 138 116 131 134 121 116 117 125 136 143 154 172 204 205 213
41 40 41 38 38 44 44 44 37 34 42 49 31 22 21 39 42 48 60 122 110 109 171 193 175 169 162 138 144 169 163 143 138 127 122 114 96 65 25 293 261 246 233
50 49 51 49 44 42 45 52 49 34 35 37 34 40 43 52 51 52 80 75 69 98 141 163 171 163 153 151 172 171 167 161 149 144 122 81 33 11 350 316 284 258 238